Adlington, United Kingdom
Current Conditions -  °F | °C
As of 2:20 PM on Friday 31 Oct 2014 (Local Time) from EGNO Reporting Station
Clear Clear  
Wind Chill: 63°   Ceiling: Unl
Heat Index: 63°   Visibility: 6mi
Dew Point: 57°   Wind: 14mph
Humidity: 82%   Direction: 160°SSE
Pressure: 29.8"   Gusts: NA
Location:  53.61°N, 2.61°W
Report Text: EGNO 311420Z 16012KT CAVOK 17/14 Q1009
Loading
Personal Weather Stations






























Interactive Weather Map
Tropical Storm Tracking
New forecast layout! Learn more

10-Day Weather Forecast

Advertisements
Track Severe Weather on mobile